カタログに戻る

DALINGHAOWAN

運用中科学SSO
NORAD 63993·PAYLOAD·🇨🇳 China
この衛星名は、まだ公式ソースで確認されていません。

打ち上げ May 14, 2025 から Jiuquan Satellite Launch Center

Loading…

次のパス (今後24時間)

TLE

最新Source: Space-Track

元期: Sep 14, 2026, 15:11 UTC

1 63993U 25100M   26257.63294868  .00015918  00000-0  56518-3 0  9998
2 63993  97.3587 333.7290 0005319  16.4835 343.6577 15.29107805 74568

AllMySatでDALINGHAOWANをリアルタイム追跡

Download on the App Store